Time,TemperatureF,DewpointF,PressureIn,WindDirection,WindDirectionDegrees,WindSpeedMPH,WindSpeedGustMPH,Humidity,HourlyPrecipIn,Conditions,Clouds,dailyrainin,SoftwareType,DateUTC
2013-07-17 00:01:00,76.0,69.0,30.22,North,9,0.0,1.0,80,0.00,,,0.00,,2013-07-17 04:01:00,
2013-07-17 00:11:00,75.0,69.0,30.22,North,9,0.0,1.0,81,0.00,,,0.00,,2013-07-17 04:11:00,
2013-07-17 00:22:00,75.0,69.0,30.22,North,9,0.0,1.0,81,0.00,,,0.00,,2013-07-17 04:22:00,
2013-07-17 00:43:00,75.0,68.0,30.23,North,9,0.0,3.0,80,0.00,,,0.00,,2013-07-17 04:43:00,
2013-07-17 00:53:00,75.0,68.0,30.23,North,9,0.0,3.0,79,0.00,,,0.00,,2013-07-17 04:53:00,
2013-07-17 01:02:00,75.0,68.0,30.22,North,9,0.0,2.0,79,0.00,,,0.00,,2013-07-17 05:02:00,
2013-07-17 01:11:00,75.0,68.0,30.22,North,9,0.0,1.0,79,0.00,,,0.00,,2013-07-17 05:11:00,
2013-07-17 01:22:00,75.0,68.0,30.22,North,9,0.0,2.0,79,0.00,,,0.00,,2013-07-17 05:22:00,
2013-07-17 01:32:00,75.0,68.0,30.22,North,9,1.0,4.0,79,0.00,,,0.00,,2013-07-17 05:32:00,
2013-07-17 01:43:00,75.0,68.0,30.22,North,9,0.0,5.0,79,0.00,,,0.00,,2013-07-17 05:43:00,
2013-07-17 01:52:00,75.0,68.0,30.22,North,360,1.0,5.0,79,0.00,,,0.00,,2013-07-17 05:52:00,
2013-07-17 02:01:00,75.0,68.0,30.22,North,5,3.0,5.0,80,0.00,,,0.00,,2013-07-17 06:01:00,
2013-07-17 02:11:00,75.0,68.0,30.22,North,360,3.0,4.0,80,0.00,,,0.00,,2013-07-17 06:11:00,
2013-07-17 02:22:00,75.0,68.0,30.21,NNW,345,2.0,5.0,80,0.00,,,0.00,,2013-07-17 06:22:00,
2013-07-17 02:33:00,75.0,69.0,30.21,NNW,340,1.0,5.0,81,0.00,,,0.00,,2013-07-17 06:33:00,
2013-07-17 02:43:00,75.0,69.0,30.21,NNW,338,0.0,7.0,81,0.00,,,0.00,,2013-07-17 06:43:00,
2013-07-17 02:52:00,75.0,69.0,30.22,NNW,338,2.0,3.0,81,0.00,,,0.00,,2013-07-17 06:52:00,
2013-07-17 03:01:00,74.0,68.0,30.21,NNW,332,2.0,6.0,82,0.00,,,0.00,,2013-07-17 07:01:00,
2013-07-17 03:11:00,74.0,68.0,30.21,NNW,331,2.0,5.0,82,0.00,,,0.00,,2013-07-17 07:11:00,
2013-07-17 03:42:00,74.0,68.0,30.21,NNW,332,0.0,5.0,82,0.00,,,0.00,,2013-07-17 07:42:00,
2013-07-17 03:52:00,74.0,68.0,30.21,NNW,331,1.0,4.0,82,0.00,,,0.00,,2013-07-17 07:52:00,
2013-07-17 04:02:00,74.0,68.0,30.21,NNW,331,1.0,5.0,82,0.00,,,0.00,,2013-07-17 08:02:00,
2013-07-17 04:11:00,74.0,68.0,30.21,NNW,333,0.0,6.0,82,0.00,,,0.00,,2013-07-17 08:11:00,
2013-07-17 04:22:00,74.0,68.0,30.21,NNW,333,2.0,5.0,82,0.00,,,0.00,,2013-07-17 08:22:00,
2013-07-17 04:32:00,74.0,68.0,30.21,NNW,331,2.0,4.0,82,0.00,,,0.00,,2013-07-17 08:32:00,
2013-07-17 04:43:00,74.0,68.0,30.21,NNW,331,1.0,5.0,82,0.00,,,0.00,,2013-07-17 08:43:00,
2013-07-17 04:53:00,74.0,68.0,30.21,NNW,331,1.0,4.0,82,0.00,,,0.00,,2013-07-17 08:53:00,
2013-07-17 05:02:00,74.0,68.0,30.21,NNW,331,2.0,5.0,82,0.00,,,0.00,,2013-07-17 09:02:00,
2013-07-17 05:12:00,74.0,68.0,30.21,NNW,331,1.0,5.0,82,0.00,,,0.00,,2013-07-17 09:12:00,
2013-07-17 05:22:00,74.0,68.0,30.21,NNW,330,0.0,4.0,82,0.00,,,0.00,,2013-07-17 09:22:00,
2013-07-17 05:32:00,74.0,68.0,30.21,NNW,330,0.0,4.0,82,0.00,,,0.00,,2013-07-17 09:32:00,
2013-07-17 05:43:00,75.0,69.0,30.21,NNW,331,1.0,4.0,82,0.00,,,0.00,,2013-07-17 09:43:00,
2013-07-17 05:52:00,75.0,69.0,30.21,NNW,330,0.0,4.0,82,0.00,,,0.00,,2013-07-17 09:52:00,
2013-07-17 06:01:00,75.0,69.0,30.22,NNW,330,0.0,3.0,81,0.00,,,0.00,,2013-07-17 10:01:00,
2013-07-17 06:11:00,75.0,69.0,30.22,NNW,331,0.0,3.0,81,0.00,,,0.00,,2013-07-17 10:11:00,
2013-07-17 06:22:00,75.0,69.0,30.22,NNW,331,2.0,4.0,81,0.00,,,0.00,,2013-07-17 10:22:00,
2013-07-17 06:32:00,75.0,69.0,30.22,NNW,331,1.0,5.0,81,0.00,,,0.00,,2013-07-17 10:32:00,
2013-07-17 06:43:00,75.0,69.0,30.23,NNW,331,2.0,5.0,81,0.00,,,0.00,,2013-07-17 10:43:00,
2013-07-17 06:52:00,75.0,69.0,30.23,NNW,330,2.0,5.0,81,0.00,,,0.00,,2013-07-17 10:52:00,
2013-07-17 07:02:00,75.0,69.0,30.23,NNW,331,0.0,5.0,82,0.00,,,0.00,,2013-07-17 11:02:00,
2013-07-17 07:11:00,76.0,70.0,30.23,NNW,331,1.0,5.0,82,0.00,,,0.00,,2013-07-17 11:11:00,
2013-07-17 07:22:00,76.0,70.0,30.23,NNW,331,1.0,5.0,82,0.00,,,0.00,,2013-07-17 11:22:00,
2013-07-17 07:42:00,77.0,71.0,30.23,NNW,329,0.0,5.0,82,0.00,,,0.00,,2013-07-17 11:42:00,
2013-07-17 07:52:00,77.0,71.0,30.23,NW,326,0.0,6.0,81,0.00,,,0.00,,2013-07-17 11:52:00,
2013-07-17 08:22:00,78.0,72.0,30.22,NW,325,4.0,7.0,82,0.00,,,0.00,,2013-07-17 12:22:00,
2013-07-17 08:32:00,78.0,72.0,30.22,NNW,346,1.0,7.0,82,0.00,,,0.00,,2013-07-17 12:32:00,
2013-07-17 08:42:00,79.0,73.0,30.22,NNW,341,3.0,9.0,82,0.00,,,0.00,,2013-07-17 12:42:00,
2013-07-17 08:53:00,79.0,73.0,30.22,NNW,329,3.0,7.0,81,0.00,,,0.00,,2013-07-17 12:53:00,
2013-07-17 09:02:00,79.0,73.0,30.22,NNW,336,0.0,9.0,82,0.00,,,0.00,,2013-07-17 13:02:00,
2013-07-17 09:43:00,81.0,75.0,30.22,North,350,2.0,6.0,81,0.00,,,0.00,,2013-07-17 13:43:00,
2013-07-17 09:52:00,81.0,74.0,30.22,NNW,334,3.0,7.0,80,0.00,,,0.00,,2013-07-17 13:52:00,
2013-07-17 10:11:00,83.0,76.0,30.22,NNW,331,4.0,8.0,79,0.00,,,0.00,,2013-07-17 14:11:00,
2013-07-17 10:22:00,83.0,75.0,30.22,NNW,340,2.0,7.0,78,0.00,,,0.00,,2013-07-17 14:22:00,
2013-07-17 10:32:00,83.0,75.0,30.22,NNW,338,2.0,5.0,78,0.00,,,0.00,,2013-07-17 14:32:00,
2013-07-17 10:43:00,84.0,76.0,30.22,NW,323,5.0,10.0,76,0.00,,,0.00,,2013-07-17 14:43:00,
2013-07-17 10:52:00,85.0,77.0,30.21,NW,325,0.0,5.0,76,0.00,,,0.00,,2013-07-17 14:52:00,
2013-07-17 11:22:00,86.0,76.0,30.21,NNW,342,3.0,5.0,73,0.00,,,0.00,,2013-07-17 15:22:00,
2013-07-17 11:32:00,87.0,77.0,30.20,NNW,338,1.0,5.0,72,0.00,,,0.00,,2013-07-17 15:32:00,
2013-07-17 11:42:00,87.0,76.0,30.20,NNW,329,1.0,6.0,71,0.00,,,0.00,,2013-07-17 15:42:00,
2013-07-17 11:52:00,88.0,77.0,30.20,North,360,1.0,5.0,71,0.00,,,0.00,,2013-07-17 15:52:00,
2013-07-17 12:02:00,88.0,77.0,30.20,North,5,0.0,4.0,70,0.00,,,0.00,,2013-07-17 16:02:00,
2013-07-17 12:11:00,89.0,77.0,30.20,North,360,0.0,4.0,69,0.00,,,0.00,,2013-07-17 16:11:00,
2013-07-17 12:22:00,89.0,76.0,30.19,North,360,1.0,4.0,66,0.00,,,0.00,,2013-07-17 16:22:00,
2013-07-17 12:33:00,89.0,76.0,30.19,North,360,0.0,4.0,65,0.00,,,0.00,,2013-07-17 16:33:00,
2013-07-17 12:42:00,90.0,78.0,30.19,NNW,344,0.0,9.0,67,0.00,,,0.00,,2013-07-17 16:42:00,
2013-07-17 12:52:00,91.0,77.0,30.19,NNW,347,3.0,10.0,64,0.00,,,0.00,,2013-07-17 16:52:00,
2013-07-17 13:02:00,91.0,77.0,30.19,NNW,347,3.0,10.0,64,0.00,,,0.00,,2013-07-17 17:02:00,
2013-07-17 13:11:00,91.0,78.0,30.18,NNW,346,2.0,7.0,65,0.00,,,0.00,,2013-07-17 17:11:00,
2013-07-17 13:22:00,91.0,77.0,30.17,NNW,329,2.0,7.0,63,0.00,,,0.00,,2013-07-17 17:22:00,
2013-07-17 13:32:00,91.0,77.0,30.16,NNW,336,3.0,7.0,63,0.00,,,0.00,,2013-07-17 17:32:00,
2013-07-17 13:43:00,92.0,78.0,30.17,NNW,333,3.0,7.0,64,0.00,,,0.00,,2013-07-17 17:43:00,
2013-07-17 13:52:00,92.0,78.0,30.16,NNW,332,3.0,7.0,63,0.00,,,0.00,,2013-07-17 17:52:00,
2013-07-17 14:01:00,92.0,77.0,30.16,North,350,1.0,10.0,62,0.00,,,0.00,,2013-07-17 18:01:00,
2013-07-17 14:11:00,91.0,77.0,30.15,NNW,340,2.0,9.0,64,0.00,,,0.00,,2013-07-17 18:11:00,
2013-07-17 14:22:00,92.0,78.0,30.15,NNE,17,4.0,7.0,64,0.00,,,0.00,,2013-07-17 18:22:00,
2013-07-17 14:32:00,91.0,78.0,30.14,NNW,340,3.0,7.0,65,0.00,,,0.00,,2013-07-17 18:32:00,
2013-07-17 14:43:00,91.0,77.0,30.14,North,10,5.0,12.0,64,0.00,,,0.00,,2013-07-17 18:43:00,
2013-07-17 14:52:00,92.0,79.0,30.13,North,11,1.0,10.0,65,0.00,,,0.00,,2013-07-17 18:52:00,
2013-07-17 15:11:00,92.0,79.0,30.13,NW,313,3.0,7.0,65,0.00,,,0.00,,2013-07-17 19:11:00,
2013-07-17 15:22:00,91.0,78.0,30.12,WNW,298,3.0,7.0,66,0.00,,,0.00,,2013-07-17 19:22:00,
2013-07-17 15:32:00,91.0,78.0,30.12,WSW,250,2.0,9.0,66,0.00,,,0.00,,2013-07-17 19:32:00,
2013-07-17 15:43:00,90.0,78.0,30.12,NW,306,1.0,7.0,68,0.00,,,0.00,,2013-07-17 19:43:00,
2013-07-17 15:53:00,91.0,78.0,30.11,West,272,4.0,9.0,67,0.00,,,0.00,,2013-07-17 19:53:00,
2013-07-17 16:22:00,92.0,80.0,30.10,NW,313,1.0,7.0,68,0.00,,,0.00,,2013-07-17 20:22:00,
2013-07-17 16:33:00,91.0,79.0,30.10,NW,307,3.0,10.0,69,0.00,,,0.00,,2013-07-17 20:33:00,
2013-07-17 16:52:00,91.0,78.0,30.10,West,273,5.0,17.0,67,0.00,,,0.00,,2013-07-17 20:52:00,
2013-07-17 17:02:00,91.0,78.0,30.10,NW,304,3.0,19.0,65,0.00,,,0.00,,2013-07-17 21:02:00,
2013-07-17 17:22:00,91.0,78.0,30.09,West,259,6.0,14.0,65,0.00,,,0.00,,2013-07-17 21:22:00,
2013-07-17 17:32:00,91.0,77.0,30.09,West,281,7.0,13.0,64,0.00,,,0.00,,2013-07-17 21:32:00,
2013-07-17 17:42:00,91.0,77.0,30.09,West,273,6.0,15.0,64,0.00,,,0.00,,2013-07-17 21:42:00,
2013-07-17 17:52:00,91.0,77.0,30.08,WNW,284,3.0,15.0,63,0.00,,,0.00,,2013-07-17 21:52:00,
2013-07-17 18:01:00,91.0,76.0,30.07,WNW,302,5.0,13.0,61,0.00,,,0.00,,2013-07-17 22:01:00,
2013-07-17 18:22:00,90.0,72.0,30.08,WSW,242,6.0,16.0,56,0.00,,,0.00,,2013-07-17 22:22:00,
2013-07-17 18:32:00,90.0,73.0,30.08,West,264,3.0,12.0,58,0.00,,,0.00,,2013-07-17 22:32:00,
2013-07-17 18:43:00,90.0,74.0,30.08,NW,309,2.0,9.0,59,0.00,,,0.00,,2013-07-17 22:43:00,
2013-07-17 18:53:00,90.0,74.0,30.08,NW,318,2.0,11.0,59,0.00,,,0.00,,2013-07-17 22:53:00,
2013-07-17 19:02:00,89.0,74.0,30.08,West,270,4.0,13.0,61,0.00,,,0.00,,2013-07-17 23:02:00,
2013-07-17 19:32:00,89.0,75.0,30.08,WNW,296,5.0,7.0,64,0.00,,,0.00,,2013-07-17 23:32:00,
2013-07-17 19:43:00,88.0,75.0,30.08,West,271,2.0,12.0,65,0.00,,,0.00,,2013-07-17 23:43:00,
2013-07-17 19:52:00,88.0,75.0,30.08,West,269,2.0,6.0,66,0.00,,,0.00,,2013-07-17 23:52:00,
2013-07-17 20:01:00,87.0,74.0,30.08,NW,304,4.0,7.0,66,0.00,,,0.00,,2013-07-18 00:01:00,
2013-07-17 20:11:00,87.0,75.0,30.09,West,281,2.0,9.0,67,0.00,,,0.00,,2013-07-18 00:11:00,
2013-07-17 20:22:00,87.0,75.0,30.08,West,275,3.0,6.0,68,0.00,,,0.00,,2013-07-18 00:22:00,
2013-07-17 20:33:00,87.0,75.0,30.08,West,281,1.0,9.0,68,0.00,,,0.00,,2013-07-18 00:33:00,
2013-07-17 20:43:00,86.0,75.0,30.09,WNW,300,3.0,5.0,69,0.00,,,0.00,,2013-07-18 00:43:00,
2013-07-17 20:52:00,86.0,75.0,30.08,WNW,291,4.0,11.0,70,0.00,,,0.00,,2013-07-18 00:52:00,
2013-07-17 21:01:00,86.0,75.0,30.09,NW,313,4.0,12.0,71,0.00,,,0.00,,2013-07-18 01:01:00,
2013-07-17 21:11:00,86.0,76.0,30.08,WNW,291,3.0,6.0,72,0.00,,,0.00,,2013-07-18 01:11:00,
2013-07-17 21:22:00,85.0,75.0,30.08,WNW,288,3.0,5.0,72,0.00,,,0.00,,2013-07-18 01:22:00,
2013-07-17 21:32:00,85.0,75.0,30.08,West,281,2.0,11.0,73,0.00,,,0.00,,2013-07-18 01:32:00,
2013-07-17 21:43:00,85.0,75.0,30.08,West,271,3.0,6.0,73,0.00,,,0.00,,2013-07-18 01:43:00,
2013-07-17 21:53:00,85.0,76.0,30.08,West,267,0.0,3.0,74,0.00,,,0.00,,2013-07-18 01:53:00,
2013-07-17 22:22:00,84.0,76.0,30.09,WSW,255,3.0,11.0,76,0.00,,,0.00,,2013-07-18 02:22:00,
2013-07-17 22:32:00,84.0,76.0,30.09,WNW,298,2.0,9.0,76,0.00,,,0.00,,2013-07-18 02:32:00,
2013-07-17 22:43:00,83.0,75.0,30.10,WNW,285,1.0,5.0,77,0.00,,,0.00,,2013-07-18 02:43:00,
2013-07-17 22:52:00,83.0,75.0,30.09,WNW,286,2.0,7.0,77,0.00,,,0.00,,2013-07-18 02:52:00,
2013-07-17 23:01:00,83.0,75.0,30.10,WNW,302,4.0,6.0,78,0.00,,,0.00,,2013-07-18 03:01:00,
2013-07-17 23:11:00,83.0,75.0,30.10,West,281,2.0,9.0,78,0.00,,,0.00,,2013-07-18 03:11:00,
2013-07-17 23:43:00,82.0,75.0,30.10,WSW,252,0.0,6.0,79,0.00,,,0.00,,2013-07-18 03:43:00,
2013-07-17 23:52:00,82.0,75.0,30.11,WSW,257,2.0,4.0,80,0.00,,,0.00,,2013-07-18 03:52:00,